<?xml version="1.0" encoding="UTF-8" standalone="no" ?>
<gpx xmlns="http://www.topografix.com/GPX/1/1" xmlns:xsi="http://www.w3.org/2001/XMLSchema-instance" xsi:schemaLocation="http://www.topografix.com/GPX/1/1 http://www.topografix.com/GPX/1/1/gpx.xsd" version="1.1" creator="VisuGPX - https://www.visugpx.com">
  <metadata>
    <name>LePouliguen_LeCroisic_10-20km</name>
    <desc><![CDATA[gnerando idor:14387918_14388012_14411987_14458844_14458865]]></desc>
  </metadata>
  <trk>
    <name><![CDATA[LePouliguen_LeCroisic20.5km-14387918]]></name>
    <extensions>
      <line xmlns="http://www.topografix.com/GPX/gpx_style/0/2">
        <color>0000FF</color>
        <width>4</width>
      </line>
    </extensions>
    <trkseg>
      <trkpt lat="47.28264" lon="-2.4338">
        <ele>3</ele>
        <time>2023-11-04T19:25:10Z</time>
      </trkpt>
      <trkpt lat="47.28162" lon="-2.43243">
        <ele>4</ele>
        <time>2023-11-04T19:28:14Z</time>
      </trkpt>
      <trkpt lat="47.28092" lon="-2.43131">
        <ele>4</ele>
        <time>2023-11-04T19:30:32Z</time>
      </trkpt>
      <trkpt lat="47.28089" lon="-2.42903">
        <ele>6</ele>
        <time>2023-11-04T19:33:58Z</time>
      </trkpt>
      <trkpt lat="47.28039" lon="-2.428">
        <ele>5</ele>
        <time>2023-11-04T19:35:53Z</time>
      </trkpt>
      <trkpt lat="47.27833" lon="-2.42818">
        <ele>4</ele>
        <time>2023-11-04T19:40:29Z</time>
      </trkpt>
      <trkpt lat="47.27667" lon="-2.42783">
        <ele>4</ele>
        <time>2023-11-04T19:44:12Z</time>
      </trkpt>
      <trkpt lat="47.27381" lon="-2.4241">
        <ele>6</ele>
        <time>2023-11-04T19:52:42Z</time>
      </trkpt>
      <trkpt lat="47.27192" lon="-2.42517">
        <ele>7</ele>
        <time>2023-11-04T19:57:12Z</time>
      </trkpt>
      <trkpt lat="47.27029" lon="-2.42487">
        <ele>6</ele>
        <time>2023-11-04T20:00:51Z</time>
      </trkpt>
      <trkpt lat="47.26939" lon="-2.4232">
        <ele>1.5</ele>
        <time>2023-11-04T20:04:04Z</time>
      </trkpt>
      <trkpt lat="47.2688" lon="-2.42341">
        <ele>2</ele>
        <time>2023-11-04T20:05:25Z</time>
      </trkpt>
      <trkpt lat="47.26578" lon="-2.42152">
        <ele>6</ele>
        <time>2023-11-04T20:12:43Z</time>
      </trkpt>
      <trkpt lat="47.26519" lon="-2.41951">
        <ele>4</ele>
        <time>2023-11-04T20:16:02Z</time>
      </trkpt>
      <trkpt lat="47.26327" lon="-2.41908">
        <ele>5</ele>
        <time>2023-11-04T20:20:21Z</time>
      </trkpt>
      <trkpt lat="47.26155" lon="-2.4168">
        <ele>5</ele>
        <time>2023-11-04T20:25:29Z</time>
      </trkpt>
      <trkpt lat="47.2601" lon="-2.41998">
        <ele>12</ele>
        <time>2023-11-04T20:31:16Z</time>
      </trkpt>
      <trkpt lat="47.25876" lon="-2.42058">
        <ele>5</ele>
        <time>2023-11-04T20:34:23Z</time>
      </trkpt>
      <trkpt lat="47.25981" lon="-2.42461">
        <ele>6</ele>
        <time>2023-11-04T20:40:54Z</time>
      </trkpt>
      <trkpt lat="47.25975" lon="-2.42861">
        <ele>7</ele>
        <time>2023-11-04T20:46:57Z</time>
      </trkpt>
      <trkpt lat="47.2594" lon="-2.43015">
        <ele>8</ele>
        <time>2023-11-04T20:49:24Z</time>
      </trkpt>
      <trkpt lat="47.2582" lon="-2.43161">
        <ele>3</ele>
        <time>2023-11-04T20:52:51Z</time>
      </trkpt>
      <trkpt lat="47.25931" lon="-2.43238">
        <ele>5</ele>
        <time>2023-11-04T20:55:35Z</time>
      </trkpt>
      <trkpt lat="47.26071" lon="-2.4365">
        <ele>6</ele>
        <time>2023-11-04T21:02:32Z</time>
      </trkpt>
      <trkpt lat="47.26065" lon="-2.44024">
        <ele>7</ele>
        <time>2023-11-04T21:08:11Z</time>
      </trkpt>
      <trkpt lat="47.26193" lon="-2.44478">
        <ele>7</ele>
        <time>2023-11-04T21:15:36Z</time>
      </trkpt>
      <trkpt lat="47.26222" lon="-2.44779">
        <ele>5</ele>
        <time>2023-11-04T21:20:12Z</time>
      </trkpt>
      <trkpt lat="47.26356" lon="-2.44929">
        <ele>7</ele>
        <time>2023-11-04T21:23:56Z</time>
      </trkpt>
      <trkpt lat="47.26403" lon="-2.45024">
        <ele>8</ele>
        <time>2023-11-04T21:25:43Z</time>
      </trkpt>
      <trkpt lat="47.26295" lon="-2.45092">
        <ele>3</ele>
        <time>2023-11-04T21:28:20Z</time>
      </trkpt>
      <trkpt lat="47.26412" lon="-2.45281">
        <ele>3</ele>
        <time>2023-11-04T21:32:11Z</time>
      </trkpt>
      <trkpt lat="47.26566" lon="-2.45298">
        <ele>7</ele>
        <time>2023-11-04T21:35:37Z</time>
      </trkpt>
      <trkpt lat="47.26814" lon="-2.45521">
        <ele>7</ele>
        <time>2023-11-04T21:42:05Z</time>
      </trkpt>
      <trkpt lat="47.26799" lon="-2.45611">
        <ele>5</ele>
        <time>2023-11-04T21:43:29Z</time>
      </trkpt>
      <trkpt lat="47.26866" lon="-2.45702">
        <ele>5</ele>
        <time>2023-11-04T21:45:30Z</time>
      </trkpt>
      <trkpt lat="47.26907" lon="-2.45886">
        <ele>4</ele>
        <time>2023-11-04T21:48:26Z</time>
      </trkpt>
      <trkpt lat="47.26971" lon="-2.45985">
        <ele>5</ele>
        <time>2023-11-04T21:50:30Z</time>
      </trkpt>
      <trkpt lat="47.27032" lon="-2.46182">
        <ele>6</ele>
        <time>2023-11-04T21:53:46Z</time>
      </trkpt>
      <trkpt lat="47.26956" lon="-2.46294">
        <ele>2</ele>
        <time>2023-11-04T21:56:09Z</time>
      </trkpt>
      <trkpt lat="47.27012" lon="-2.46478">
        <ele>3</ele>
        <time>2023-11-04T21:59:12Z</time>
      </trkpt>
      <trkpt lat="47.27076" lon="-2.46508">
        <ele>5</ele>
        <time>2023-11-04T22:00:41Z</time>
      </trkpt>
      <trkpt lat="47.27099" lon="-2.46586">
        <ele>6</ele>
        <time>2023-11-04T22:01:58Z</time>
      </trkpt>
      <trkpt lat="47.26968" lon="-2.46766">
        <ele>5</ele>
        <time>2023-11-04T22:05:57Z</time>
      </trkpt>
      <trkpt lat="47.26988" lon="-2.47139">
        <ele>6</ele>
        <time>2023-11-04T22:11:36Z</time>
      </trkpt>
      <trkpt lat="47.27052" lon="-2.47148">
        <ele>11</ele>
        <time>2023-11-04T22:13:02Z</time>
      </trkpt>
      <trkpt lat="47.27125" lon="-2.47538">
        <ele>6</ele>
        <time>2023-11-04T22:19:08Z</time>
      </trkpt>
      <trkpt lat="47.27215" lon="-2.47779">
        <ele>6</ele>
        <time>2023-11-04T22:23:17Z</time>
      </trkpt>
      <trkpt lat="47.27288" lon="-2.47903">
        <ele>5</ele>
        <time>2023-11-04T22:25:46Z</time>
      </trkpt>
      <trkpt lat="47.27265" lon="-2.48062">
        <ele>5</ele>
        <time>2023-11-04T22:28:13Z</time>
      </trkpt>
      <trkpt lat="47.27408" lon="-2.48118">
        <ele>10</ele>
        <time>2023-11-04T22:31:31Z</time>
      </trkpt>
      <trkpt lat="47.2748" lon="-2.48684">
        <ele>4</ele>
        <time>2023-11-04T22:40:12Z</time>
      </trkpt>
      <trkpt lat="47.27556" lon="-2.48688">
        <ele>7</ele>
        <time>2023-11-04T22:41:54Z</time>
      </trkpt>
      <trkpt lat="47.27501" lon="-2.48804">
        <ele>5</ele>
        <time>2023-11-04T22:44:02Z</time>
      </trkpt>
      <trkpt lat="47.27571" lon="-2.49221">
        <ele>6</ele>
        <time>2023-11-04T22:50:31Z</time>
      </trkpt>
      <trkpt lat="47.27865" lon="-2.49264">
        <ele>7</ele>
        <time>2023-11-04T22:57:05Z</time>
      </trkpt>
      <trkpt lat="47.27806" lon="-2.49431">
        <ele>7</ele>
        <time>2023-11-04T22:59:55Z</time>
      </trkpt>
      <trkpt lat="47.27993" lon="-2.4968">
        <ele>7</ele>
        <time>2023-11-04T23:05:32Z</time>
      </trkpt>
      <trkpt lat="47.28109" lon="-2.49607">
        <ele>7</ele>
        <time>2023-11-04T23:08:20Z</time>
      </trkpt>
      <trkpt lat="47.28191" lon="-2.50139">
        <ele>7</ele>
        <time>2023-11-04T23:16:34Z</time>
      </trkpt>
      <trkpt lat="47.2829" lon="-2.50319">
        <ele>3</ele>
        <time>2023-11-04T23:20:04Z</time>
      </trkpt>
      <trkpt lat="47.28194" lon="-2.50744">
        <ele>3</ele>
        <time>2023-11-04T23:26:49Z</time>
      </trkpt>
      <trkpt lat="47.28234" lon="-2.51062">
        <ele>4</ele>
        <time>2023-11-04T23:31:42Z</time>
      </trkpt>
      <trkpt lat="47.28421" lon="-2.51293">
        <ele>7</ele>
        <time>2023-11-04T23:37:08Z</time>
      </trkpt>
      <trkpt lat="47.28511" lon="-2.51529">
        <ele>5</ele>
        <time>2023-11-04T23:41:13Z</time>
      </trkpt>
      <trkpt lat="47.28546" lon="-2.51817">
        <ele>3</ele>
        <time>2023-11-04T23:45:37Z</time>
      </trkpt>
      <trkpt lat="47.28636" lon="-2.521">
        <ele>6</ele>
        <time>2023-11-04T23:50:20Z</time>
      </trkpt>
      <trkpt lat="47.28622" lon="-2.52208">
        <ele>3</ele>
        <time>2023-11-04T23:52:00Z</time>
      </trkpt>
      <trkpt lat="47.28703" lon="-2.52306">
        <ele>6</ele>
        <time>2023-11-04T23:54:20Z</time>
      </trkpt>
      <trkpt lat="47.28689" lon="-2.52632">
        <ele>4</ele>
        <time>2023-11-04T23:59:15Z</time>
      </trkpt>
      <trkpt lat="47.28718" lon="-2.53074">
        <ele>7</ele>
        <time>2023-11-05T00:05:57Z</time>
      </trkpt>
      <trkpt lat="47.28817" lon="-2.53268">
        <ele>9</ele>
        <time>2023-11-05T00:09:37Z</time>
      </trkpt>
      <trkpt lat="47.28881" lon="-2.53624">
        <ele>7</ele>
        <time>2023-11-05T00:15:11Z</time>
      </trkpt>
      <trkpt lat="47.29055" lon="-2.54362">
        <ele>3</ele>
        <time>2023-11-05T00:26:58Z</time>
      </trkpt>
      <trkpt lat="47.29006" lon="-2.54482">
        <ele>3</ele>
        <time>2023-11-05T00:29:05Z</time>
      </trkpt>
      <trkpt lat="47.29044" lon="-2.54564">
        <ele>2</ele>
        <time>2023-11-05T00:30:34Z</time>
      </trkpt>
      <trkpt lat="47.29084" lon="-2.54555">
        <ele>3</ele>
        <time>2023-11-05T00:31:28Z</time>
      </trkpt>
      <trkpt lat="47.29245" lon="-2.54727">
        <ele>2</ele>
        <time>2023-11-05T00:35:54Z</time>
      </trkpt>
      <trkpt lat="47.29472" lon="-2.54705">
        <ele>2</ele>
        <time>2023-11-05T00:40:57Z</time>
      </trkpt>
      <trkpt lat="47.298" lon="-2.54473">
        <ele>3</ele>
        <time>2023-11-05T00:49:03Z</time>
      </trkpt>
      <trkpt lat="47.2987" lon="-2.54332">
        <ele>3</ele>
        <time>2023-11-05T00:51:41Z</time>
      </trkpt>
      <trkpt lat="47.29917" lon="-2.5407">
        <ele>2</ele>
        <time>2023-11-05T00:55:46Z</time>
      </trkpt>
      <trkpt lat="47.29969" lon="-2.53954">
        <ele>1</ele>
        <time>2023-11-05T00:57:52Z</time>
      </trkpt>
      <trkpt lat="47.2992" lon="-2.53649">
        <ele>2</ele>
        <time>2023-11-05T01:02:36Z</time>
      </trkpt>
      <trkpt lat="47.30089" lon="-2.53426">
        <ele>2</ele>
        <time>2023-11-05T01:07:38Z</time>
      </trkpt>
      <trkpt lat="47.30051" lon="-2.53268">
        <ele>3</ele>
        <time>2023-11-05T01:10:10Z</time>
      </trkpt>
      <trkpt lat="47.30048" lon="-2.53044">
        <ele>2</ele>
        <time>2023-11-05T01:13:33Z</time>
      </trkpt>
      <trkpt lat="47.30109" lon="-2.52718">
        <ele>4</ele>
        <time>2023-11-05T01:18:39Z</time>
      </trkpt>
      <trkpt lat="47.30042" lon="-2.52105">
        <ele>5</ele>
        <time>2023-11-05T01:28:01Z</time>
      </trkpt>
      <trkpt lat="47.30097" lon="-2.52057">
        <ele>3</ele>
        <time>2023-11-05T01:29:26Z</time>
      </trkpt>
      <trkpt lat="47.29969" lon="-2.51907">
        <ele>2</ele>
        <time>2023-11-05T01:33:04Z</time>
      </trkpt>
      <trkpt lat="47.29961" lon="-2.51834">
        <ele>3</ele>
        <time>2023-11-05T01:34:11Z</time>
      </trkpt>
      <trkpt lat="47.30004" lon="-2.518">
        <ele>1</ele>
        <time>2023-11-05T01:35:16Z</time>
      </trkpt>
      <trkpt lat="47.2992" lon="-2.51654">
        <ele>2</ele>
        <time>2023-11-05T01:38:10Z</time>
      </trkpt>
      <trkpt lat="47.29862" lon="-2.51478">
        <ele>2</ele>
        <time>2023-11-05T01:41:07Z</time>
      </trkpt>
      <trkpt lat="47.2955" lon="-2.51306">
        <ele>6</ele>
        <time>2023-11-05T01:48:31Z</time>
      </trkpt>
      <trkpt lat="47.29498" lon="-2.5113">
        <ele>6</ele>
        <time>2023-11-05T01:51:25Z</time>
      </trkpt>
      <trkpt lat="47.29378" lon="-2.50942">
        <ele>3</ele>
        <time>2023-11-05T01:55:19Z</time>
      </trkpt>
      <trkpt lat="47.29195" lon="-2.5083">
        <ele>5</ele>
        <time>2023-11-05T01:59:43Z</time>
      </trkpt>
      <trkpt lat="47.29201" lon="-2.50525">
        <ele>5</ele>
        <time>2023-11-05T02:04:19Z</time>
      </trkpt>
      <trkpt lat="47.29125" lon="-2.50474">
        <ele>4</ele>
        <time>2023-11-05T02:06:11Z</time>
      </trkpt>
      <trkpt lat="47.2905" lon="-2.5077">
        <ele>6</ele>
        <time>2023-11-05T02:10:57Z</time>
      </trkpt>
      <trkpt lat="47.28837" lon="-2.5062">
        <ele>4</ele>
        <time>2023-11-05T02:16:12Z</time>
      </trkpt>
    </trkseg>
  </trk>
</gpx>